Location: Ballingbuur
(53.0000°N, 5.7667°E)
Time: 07:07:20
(UTC+00:00)

CENTAUR R/B - Pass Details

Date: 29 November 2020
Orbit: 750 x 1438 km, 63.4° (Epoch: 11 January)

Event Time Altitude Azimuth Distance (km) Brightness Sun altitude
Exits shadow 04:01:37 46° 213° (SSW) 1,790 3.5 -29.5°
Drops below altitude 10° 04:08:39 10° 167° (SSE) 3,532 5.5 -28.5°
Sets 04:11:45 0° 162° (SSE) 4,516 6.2 -28.0°
